WetterOnline ( http://www.wetteronline.de )

Wetter aktuell Oberstdorf

Aktuelles Wetter: Oberstdorf (812m)

6-stündlich | Neueste Meldungen
Ortszeit Temperatur Wetter
Mi, 28.06. 8:00 17.4° C bedeckt
Mi, 28.06. 2:00 13.9° C wolkig
Di, 27.06. 20:00 21.7° C bewölkt
Di, 27.06. 14:00 24.2° C bewölkt
Ortszeit Temperatur Wetter
Mi, 28.06. 12:30 18.9° C wolkig
Mi, 28.06. 12:00 18.2° C wolkig
Mi, 28.06. 11:30 17.7° C wolkig
Mi, 28.06. 11:00 16.7° C wolkig
Mi, 28.06. 10:30 16.2° C bewölkt
Mi, 28.06. 10:00 16.2° C bewölkt
Ortszeit Relative Feuchte Sichtweite
Mi, 28.06. 8:00 86% 35 km
Mi, 28.06. 2:00 96% 22 km
Di, 27.06. 20:00 82% 45 km
Di, 27.06. 14:00 56% 70 km
Ortszeit Relative Feuchte Sichtweite
Mi, 28.06. 12:30 77% 55 km
Mi, 28.06. 12:00 81% 65 km
Mi, 28.06. 11:30 82% 70 km
Mi, 28.06. 11:00 87% 70 km
Mi, 28.06. 10:30 90% 70 km
Mi, 28.06. 10:00 84% 70 km
Ortszeit Niederschlagsmenge Niederschlagsart
Mi, 28.06. 8:00 0.7 l/m2 in 12 Std. Regen
Mi, 28.06. 2:00 0.0 l/m2 in 6 Std. -
Di, 27.06. 20:00 0.4 l/m2 in 12 Std. Regen
Di, 27.06. 14:00 0.4 l/m2 in 6 Std. Regen
Ortszeit Niederschlagsmenge Niederschlagsart
Mi, 28.06. 12:30 keine Meldung -
Mi, 28.06. 12:00 0.0 l/m2 in 1 Std. -
Mi, 28.06. 11:30 keine Meldung -
Mi, 28.06. 11:00 0.0 l/m2 in 1 Std. Regen
Mi, 28.06. 10:30 keine Meldung -
Mi, 28.06. 10:00 1.6 l/m2 in 1 Std. Regen
Ortszeit Stärke Spitze Richtung
km/h Bft. km/h Grad Sektor
Mi, 28.06. 8:00 0 0 29 - -
Mi, 28.06. 2:00 0 0 14 - -
Di, 27.06. 20:00 0 0 22 - -
Di, 27.06. 14:00 7 2 18 340° N
Ortszeit Stärke Spitze Richtung
km/h Bft. km/h Grad Sektor
Mi, 28.06. 12:30 0 0 0 - -
Mi, 28.06. 12:00 0 0 0 - -
Mi, 28.06. 11:30 0 0 0 - -
Mi, 28.06. 11:00 0 0 0 - -
Mi, 28.06. 10:30 0 0 0 - -
Mi, 28.06. 10:00 0 0 0 - -
Ortszeit Untergrenze Bedeckung Gattung
total tief tief mittel hoch
Mi, 28.06. 8:00 870 m 8/8 8/8 - - -
Mi, 28.06. 2:00 3900 m 5/8 5/8 - - -
Di, 27.06. 20:00 3900 m 7/8 7/8 - - -
Di, 27.06. 14:00 2400 m 7/8 7/8 - - -
Ortszeit Bedeckungsgrad in Achtel und Wolkenuntergrenze
Mi, 28.06. 12:30 2(3300m) 4(3900m) 5(6000m)
Mi, 28.06. 12:00 2(390m) 4(3300m) 6(4500m)
Mi, 28.06. 11:30 2(2700m) 3(3300m) 8(4500m)
Mi, 28.06. 11:00 3(3000m) 4(3600m) 5(5100m)
Mi, 28.06. 10:30 4(3600m) 7(4200m)
Mi, 28.06. 10:00 5(3600m) 7(4200m)
Ortszeit Stationsdruck (hPa) Tendenz (hPa in 3 Std.)
Mi, 28.06. 8:00 913 + 0,9
Mi, 28.06. 2:00 913 - 1,7
Di, 27.06. 20:00 915 - 1,6
Di, 27.06. 14:00 918 - 1,6
Ortszeit Stationsdruck (hPa) Tendenz (hPa in 3 Std.)
Mi, 28.06. 12:30 912 - 1,1
Mi, 28.06. 12:00 912 - 2,4
Mi, 28.06. 11:30 912 - 1,3
Mi, 28.06. 11:00 913 - 0,4
Mi, 28.06. 10:30 913 - 0,3
Mi, 28.06. 10:00 913 - 0,1
Ortszeit Schneehöhe (cm)
Mi, 28.06. 8:00 -
Mi, 28.06. 2:00 -
Di, 27.06. 20:00 -
Di, 27.06. 14:00 -
Ortszeit Schneehöhe (cm)
Mi, 28.06. 12:30 -
Mi, 28.06. 12:00 -
Mi, 28.06. 11:30 -
Mi, 28.06. 11:00 -
Mi, 28.06. 10:30 -
Mi, 28.06. 10:00 -
Link zu dieser Seite / Seite empfehlen

Das Wetter in ...